Location: Unspecified
(0.0000°N, 0.0000°E)
Time: 01:52:02
(UTC+00:00)

N. Korean satellite - Pass Details

Date: 19 May 2017
Orbit: 461 x 518 km, 97.2° (Epoch: 22 June)

Event Time Altitude Azimuth Distance (km) Brightness Sun altitude
Rises 19:09:31 0° 189° (S) 2,527 10.1 -17.1°
Reaches altitude 10° 19:11:48 10° 202° (SSW) 1,656 9.3 -17.7°
Maximum altitude 19:14:46 25° 259° (W) 1,011 8.8 -18.3°
Drops below altitude 10° 19:17:47 10° 316° (NW) 1,676 10.3 -19.0°
Sets 19:20:07 0° 330° (NNW) 2,566 11.1 -19.6°
